OBJECT PU

Last updated on Sun Feb 03 2019 00:02:08 GMT+0000 (Coordinated Universal Time)

1 43870U 98067PU 19032.65245661 .00002520 00000-0 44948-4 0 9994 2 43870 51.6436 315.0743 0003903 347.9017 12.1906 15.54361238 6517
UTC large
Height (km)
Speed (km/s)
/
Latitude / Longitude
Inclination (degrees)
Orbital Period (minutes)
Azimuth
Elevation
Range (km)
Doppler Factor

Next 0 passes for location: London (51.5072 / 0.1276)

Sorry there are no passes over London.